Weather observations for the past three days for
Glens Falls, Floyd Bennett Memorial Airport
Imperial (Metric)
Date Time (edt) Wind (mph) Vis. (mi.) Weather Sky Cond. Temperature (ºF) Relative Humidity Wind Chill (°F) Heat Index (°F) Pressure Precipitation (in)
Air Dwpt 6 hour altimeter (in) sea level (mb) 1 hr 3 hr 6 hr
Max. Min.
20 08:53 S 5 10.00 Fair CLR 77 72 85% 78 30.27 1024.7
20 07:53 S 6 10.00 Fair CLR 75.9 71.1 75.9 66.9 85% 76 30.27 1024.6
20 06:53 Calm 6.00 Fog/Mist CLR 73 72 96% 30.26 1024.4
20 05:53 N 3 6.00 Fog/Mist CLR 70 70 100% 30.25 1024.2
20 04:53 Calm 0.25 Light Rain Fog VV003 68 68 100% 30.24 1023.8
20 03:53 Calm 9.00 Fair CLR 70 69.1 97% 30.25 1024.0
20 02:53 Calm 7.00 Fair CLR 70 70 100% 30.25 1024.1
20 01:53 Calm 0.50 Fog CLR 69.1 69.1 80.1 69.1 100% 30.26 1024.3
20 00:53 Calm 0.50 Fog VV003 71.1 71.1 100% 30.26 1024.2
19 23:53 Calm 6.00 Fog/Mist CLR 73.9 72 94% 30.26 1024.4
19 22:53 SE 5 10.00 Light Rain CLR 77 73 88% 78 30.26 1024.4
19 21:53 S 5 10.00 Light Rain CLR 75.9 73 91% 76 30.26 1024.3
19 20:53 Calm 10.00 Fair CLR 77 73.9 90% 78 30.25 1024.0
19 19:53 S 6 10.00 Fair CLR 80.1 73.9 82.9 73 82% 85 30.25 1023.9 0.18
19 18:53 Calm 10.00 Fair CLR 82 75 79% 89 30.24 1023.8
19 17:53 S 3 10.00 Fair CLR 82 73.9 77% 88 30.23 1023.5
19 16:53 S 6 10.00 Fair CLR 82 71.1 69% 86 30.23 1023.5 0.18
19 15:53 E 3 10.00 Fair CLR 82 75 79% 89 30.24 1023.7 0.01
19 14:53 Vrbl 3 10.00 Thunderstorm in Vicinity FEW044 FEW110 75.9 71.1 85% 76 30.26 1024.3 0.17
19 13:53 NW 12 G 21 10.00 Thunderstorm FEW035 81 69.1 88 77 67% 84 30.27 1024.7
19 12:53 SE 6 10.00 Thunderstorm in Vicinity CLR 87.1 75 67% 97 30.25 1023.9
19 11:53 SE 7 10.00 Fair CLR 87.1 75 67% 97 30.27 1024.7
19 10:53 S 6 10.00 A Few Clouds FEW075 84 73 70% 90 30.29 1025.2
19 09:53 S 9 10.00 A Few Clouds FEW090 82 72 72% 87 30.29 1025.4
19 08:53 S 8 10.00 Fair CLR 79 71.1 77% 82 30.29 1025.4
19 07:53 SW 7 10.00 Fair CLR 77 70 77 70 79% 79 30.29 1025.4
19 06:53 SW 6 10.00 Fair CLR 73.9 70 88% 30.28 1025.2
19 05:53 S 5 9.00 Fair CLR 73 70 90% 30.26 1024.4
19 04:53 S 5 8.00 Fair CLR 72 70 94% 30.25 1023.9
19 03:53 Calm 7.00 Fair CLR 70 69.1 97% 30.24 1023.5
19 02:53 Calm 8.00 Fair CLR 70 70 100% 30.22 1023.1
19 01:53 Calm 2.00 Fog/Mist FEW003 71.1 71.1 82 70 100% 30.21 1022.8
19 00:53 Calm 8.00 Fair CLR 72 72 100% 30.21 1022.6
18 23:53 Calm 0.75 Fog/Mist CLR 73 73 100% 30.21 1022.6
18 22:53 Calm 1.00 Fog/Mist CLR 73 73 100% 30.19 1022.0
18 21:53 Calm 0.75 Fog/Mist VV003 73.9 73.9 100% 30.18 1021.7
18 20:53 Calm 3.00 Fog/Mist CLR 78.1 77 97% 81 30.17 1021.1
18 19:53 Calm 8.00 Fair CLR 82 79 90 78.1 90% 92 30.15 1020.8 0.14
18 18:53 Calm 10.00 Fair CLR 86 78.1 77% 98 30.14 1020.4
18 17:53 Calm 10.00 Fair CLR 88 73.9 63% 97 30.15 1020.6
18 16:53 Calm 10.00 Fair CLR 84 73 70% 90 30.16 1021.0 0.14 0.14
18 15:53 SW 5 10.00 Thunderstorm FEW120 89.1 71.1 55% 95 30.16 1021.1
18 14:53 S 12 G 20 10.00 Fair CLR 89.1 72 57% 96 30.16 1020.8
18 13:53 S 9 10.00 Fair CLR 88 72 89.1 75 59% 95 30.16 1021.1
18 12:53 S 9 10.00 Partly Cloudy SCT080 87.1 72 61% 94 30.18 1021.8
18 11:53 S 9 10.00 Partly Cloudy SCT085 84.9 71.1 63% 90 30.19 1021.9
18 10:53 S 6 10.00 Fair CLR 82.9 69.1 63% 87 30.2 1022.4
18 09:53 S 6 10.00 Fair CLR 80.1 69.1 69% 83 30.21 1022.6
18 08:53 S 6 10.00 Fair CLR 77 68 74% 79 30.2 1022.4
18 07:53 SW 6 10.00 Fair CLR 75 66.9 75 62.1 76% 76 30.19 1022.0
18 06:53 S 7 10.00 Fair CLR 71.1 66.9 87% 30.17 1021.3
18 05:53 Calm 2.00 Fog/Mist CLR 62.1 62.1 100% 30.15 1020.8
18 04:53 Calm 1.00 Fog/Mist CLR 63 63 100% 30.15 1020.5
18 03:53 Calm 10.00 Fair CLR 66 64 93% 30.12 1019.8
18 02:53 Calm 10.00 Fair CLR 68 64.9 90% 30.11 1019.4
18 01:53 Calm 10.00 Fair CLR 68 66 82 66.9 93% 30.11 1019.2
18 00:53 SW 3 10.00 Fair CLR 69.1 66 90% 30.11 1019.4
17 23:53 Calm 9.00 Fair CLR 68 66 93% 30.11 1019.3
17 22:53 Calm 10.00 Fair CLR 70 68 93% 30.1 1018.9
17 21:53 E 3 10.00 Fair CLR 73.9 68 82% 30.09 1018.7
17 20:53 Calm 10.00 Fair CLR 77 68 74% 79 30.07 1018.0
17 19:53 S 6 10.00 A Few Clouds FEW080 82 68 84.9 77 63% 85 30.05 1017.4
17 18:53 S 7 10.00 A Few Clouds FEW070 84 68 59% 87 30.04 1017.1
17 17:53 S 7 G 20 10.00 Partly Cloudy SCT070 84 68 59% 87 30.03 1017.0
17 16:53 S 12 10.00 Fair CLR 84.9 66.9 55% 88 30.03 1017.0
17 15:53 S 8 10.00 Fair CLR 82.9 66.9 59% 86 30.04 1017.2
17 14:53 SW 10 10.00 Mostly Cloudy BKN110 80.1 66 62% 82 30.07 1018.2
17 13:53 S 8 10.00 Partly Cloudy SCT080 77 64.9 77 64 66% 79 30.09 1018.9
17 12:53 S 9 10.00 Light Rain SCT090 BKN120 75 63 66% 77 30.1 1019.3
17 11:53 S 8 G 17 10.00 Fair CLR 73.4 0 0% 30.1 1019.4
17 10:53 S 9 10.00 Fair CLR 73.4 0 0% 30.09 1019.1
17 09:53 S 8 10.00 Fair CLR 70 59 68% 30.13 1020.2
Date Time (edt) Wind (mph) Vis. (mi.) Weather Sky Cond. Air Dwpt Max. Min. Relative Humidity Wind Chill (°F) Heat Index (°F) altimeter (in) sea level (mb) 1 hr 3 hr 6 hr
6 hour
Temperature (ºF) Pressure Precipitation (in)